Regional Weather Roundup
Issued by NWS

Home | Current Version | Previous Version | Graphics & Text | Print | Product List | Glossary On
Versions: 1 2 3 4 5 6 7 8 9 10 11 12 13 14 15 16 17 18 19 20 21 22 23 24 25 26 27 28 29 30 31 32 33 34 35 36 37 38 39 40 41 42 43 44 45 46 47 48 49 50
000
ASUS43 KIND 281559
RWRIN

WEATHER ROUNDUP FOR INDIANA
NATIONAL WEATHER SERVICE INDIANAPOLIS IN
1200 PM EDT FRI AUG 28 2015

NOTE: "FAIR" INDICATES FEW OR NO CLOUDS BELOW 12,000 FEET WITH NO
SIGNIFICANT WEATHER AND/OR OBSTRUCTIONS TO VISIBILITY.

* - STATION DOES NOT REPORT WEATHER SUCH AS PRECIPITATION OR FOG.

+ - STATION NOT QUALITY CONTROLLED BY THE NATIONAL WEATHER SERVICE.
    USE DATA WITH CAUTION...ESPECIALLY DEWPOINT AND RELATIVE
    HUMIDITY OBSERVATIONS.

INZ001>003-010>013-019-020-281700-
NORTHWEST INDIANA

CITY           SKY/WX    TMP DP  RH WIND       PRES   REMARKS
GARY /AIRPORT/ CLOUDY    73  59  60 S5        30.16F
KNOX *+        PTSUNNY   72  59  64 SW7       30.17S
MONTICELLO +   PTSUNNY   74  61  63 SW9       30.19R
RENSSELAER +   CLOUDY    73  64  73 S6        30.17F

$$

LMZ046-743>745-281700-
SOUTHERN LAKE MICHIGAN

STATION/POSITION TIME  TEMP    WIND        PRES    WAVE
                       AIR SEA DIR/SP/G            HT
                 (UTC) (F)     (DEG/KT/KT) (MB)    (FT)
BURNS HARBOR     1500   69     200/  6/  7 1022.0R
MICHIGAN CITY    1500   68     170/  6/  7   N/A
5NW MICH CITY    1500   68 70  210/  6/  8   N/A     1

$$

INZ004-005-014>016-021>024-281700-
NORTH CENTRAL INDIANA

CITY           SKY/WX    TMP DP  RH WIND       PRES   REMARKS
ELKHART        SUNNY     72  59  64 S5        30.19S
GOSHEN         SUNNY     73  59  61 SW10      30.19R
LOGANSPORT +   MOSUNNY   73  52  46 SW7       30.20R
SOUTH BEND     MOSUNNY   71  60  68 S6        30.18S
WARSAW +       SUNNY     72  59  64 SW7       30.20R

$$

INZ006>009-017-018-025>027-281700-
NORTHEAST INDIANA

CITY           SKY/WX    TMP DP  RH WIND       PRES   REMARKS
ANGOLA *+      MOSUNNY   72  63  73 S7        30.20S
AUBURN +       SUNNY     72  57  60 SW5       30.21S
FORT WAYNE     MOSUNNY   73  59  61 SW8       30.21S

$$

INZ028-029-035-036-043>045-051>053-281700-
WEST CENTRAL INDIANA

CITY           SKY/WX    TMP DP  RH WIND       PRES   REMARKS
CRAWFORDSVL +  PTSUNNY   72  51  48 SW6       30.20R
GREENCASTLE +  PTSUNNY   72  54  53 S3        30.19S
LAFAYETTE      PTSUNNY   74  57  55 SW7       30.18R
TERRE HAUTE    PTSUNNY   74  58  57 S5        30.18R

$$

INZ030>032-037>040-046>048-054>057-064-065-281700-
CENTRAL INDIANA

CITY           SKY/WX    TMP DP  RH WIND       PRES   REMARKS
ANDERSON       SUNNY     73  48  40 S6        30.21S
FRANKFORT +    MOSUNNY   75  60  58 S6        30.22R
GREENWOOD *+   SUNNY     73  52  46 SE6       30.20F
INDIANAPOLIS   MOSUNNY   75  54  47 SE7       30.17F
-EAGLE CREEK   SUNNY     74  54  49 VRB5      30.18F
KOKOMO *+      SUNNY     75  57  53 SW10      30.21R
MT COMFORT *+  SUNNY     75  48  38 S3        30.20F
SHELBYVILLE    SUNNY     76  56  49 SE5       30.19S
ZIONSVILLE +   SUNNY     74  55  49 SE5       30.21S

$$

INZ033-034-041-042-049-050-058-059-281700-
EAST CENTRAL INDIANA

CITY           SKY/WX    TMP DP  RH WIND       PRES   REMARKS
MUNCIE         SUNNY     72  56  57 SW5       30.20S

$$

INZ060-061-067>069-081>083-085>088-281700-
SOUTHWEST INDIANA

CITY           SKY/WX    TMP DP  RH WIND       PRES   REMARKS
EVANSVILLE     MOSUNNY   77  58  51 VRB6      30.16S
HUNTINGBURG *+ SUNNY     73  57  56 E9        30.17S

$$

INZ062-063-066-070>080-084-089>092-281700-
SOUTH CENTRAL AND SOUTHEAST INDIANA

CITY           SKY/WX    TMP DP  RH WIND       PRES   REMARKS
BLOOMINGTON    MOSUNNY   74  57  55 SE7       30.18F
MADISON *+     SUNNY     73  55  53 E8        30.22S
SEYMOUR +      SUNNY     77  57  50 SE6       30.19S

$$




USA.gov is the U.S. government's official web portal to all federal, state and local government web resources and services.